AAL15 KJFK-KSFO

Flight info

Callsign AAL15
Flight time N/A
Altitude 30000
Route GAYEL Q818 WOZEE Q935 HOCKE GRB/N0459F320 GEP ABR J32 DPR/N0452F340 J32 LLC LEGGS BDEGA4
Aircraft A21N/M-SDE3FGHIRWY/LB1

Departure

Time 2026-05-07 22:19
Airport John F. Kennedy International Airport (KJFK)

Arrival

Time N/A
Airport San Francisco International Airport (KSFO)
Time Latitude Longitude Altitude Speed Heading
2026-05-07 22:02 40.64884 -73.79449 22 ft 0 kts 330°
2026-05-07 22:08 40.64874 -73.79442 22 ft 2 kts 330°
2026-05-07 22:08 40.64862 -73.79433 22 ft 0 kts 330°
2026-05-07 22:08 40.64852 -73.79425 22 ft 2 kts 313°
2026-05-07 22:09 40.64845 -73.79408 22 ft 2 kts 285°
2026-05-07 22:09 40.64844 -73.79388 22 ft 2 kts 258°
2026-05-07 22:09 40.64846 -73.79376 22 ft 1 kts 242°
2026-05-07 22:09 40.64850 -73.79369 22 ft 0 kts 240°
2026-05-07 22:12 40.64848 -73.79374 22 ft 1 kts 243°
2026-05-07 22:12 40.64839 -73.79396 22 ft 6 kts 242°
2026-05-07 22:12 40.64802 -73.79481 22 ft 14 kts 243°
2026-05-07 22:12 40.64753 -73.79598 22 ft 14 kts 241°
2026-05-07 22:13 40.64705 -73.79699 22 ft 10 kts 214°
2026-05-07 22:13 40.64635 -73.79681 22 ft 11 kts 147°
2026-05-07 22:13 40.64571 -73.79623 22 ft 8 kts 145°
2026-05-07 22:13 40.64518 -73.79599 22 ft 8 kts 175°
2026-05-07 22:14 40.64456 -73.79594 22 ft 9 kts 176°
2026-05-07 22:14 40.64382 -73.79591 22 ft 11 kts 182°
2026-05-07 22:14 40.64298 -73.79598 22 ft 12 kts 184°
2026-05-07 22:14 40.64213 -73.79607 22 ft 11 kts 183°
2026-05-07 22:15 40.64121 -73.79608 22 ft 16 kts 173°
2026-05-07 22:15 40.64008 -73.79536 22 ft 18 kts 139°
2026-05-07 22:15 40.63934 -73.79401 22 ft 18 kts 120°
2026-05-07 22:15 40.63870 -73.79260 22 ft 17 kts 120°
2026-05-07 22:16 40.63805 -73.79113 22 ft 19 kts 120°
2026-05-07 22:16 40.63738 -73.78957 22 ft 19 kts 120°
2026-05-07 22:16 40.63667 -73.78807 22 ft 19 kts 123°
2026-05-07 22:16 40.63598 -73.78663 22 ft 18 kts 121°
2026-05-07 22:17 40.63533 -73.78516 22 ft 18 kts 118°
2026-05-07 22:17 40.63477 -73.78385 22 ft 15 kts 120°
2026-05-07 22:17 40.63418 -73.78256 22 ft 17 kts 121°
2026-05-07 22:17 40.63358 -73.78121 22 ft 15 kts 118°
2026-05-07 22:18 40.63310 -73.78011 22 ft 12 kts 144°
2026-05-07 22:18 40.63218 -73.78107 22 ft 12 kts 298°
2026-05-07 22:18 40.63358 -73.78410 22 ft 73 kts 300°
2026-05-07 22:19 40.63727 -73.79230 22 ft 133 kts 301°
2026-05-07 22:19 40.64276 -73.80460 74 ft 175 kts 302°
2026-05-07 22:19 40.64901 -73.81855 645 ft 179 kts 296°
2026-05-07 22:19 40.64971 -73.83462 1272 ft 186 kts 250°
2026-05-07 22:20 40.64261 -73.84880 1894 ft 192 kts 233°
2026-05-07 22:20 40.63319 -73.86229 2265 ft 207 kts 226°
2026-05-07 22:20 40.62009 -73.87139 2544 ft 230 kts 193°
2026-05-07 22:20 40.60347 -73.86986 2817 ft 253 kts 159°
2026-05-07 22:21 40.58845 -73.85668 3184 ft 270 kts 129°
2026-05-07 22:21 40.57920 -73.83462 3746 ft 277 kts 107°
2026-05-07 22:21 40.57375 -73.81074 4461 ft 279 kts 103°
2026-05-07 22:21 40.56956 -73.78566 5153 ft 282 kts 91°
2026-05-07 22:22 40.57329 -73.76104 5762 ft 280 kts 57°
2026-05-07 22:22 40.58672 -73.74318 6432 ft 273 kts 23°
2026-05-07 22:22 40.60477 -73.73725 7055 ft 268 kts 355°
2026-05-07 22:22 40.62289 -73.74208 7647 ft 265 kts 331°
2026-05-07 22:23 40.63864 -73.75451 8297 ft 265 kts 323°
2026-05-07 22:23 40.65406 -73.76723 8960 ft 266 kts 323°
2026-05-07 22:23 40.67004 -73.78001 9643 ft 267 kts 323°
2026-05-07 22:23 40.68592 -73.79253 10290 ft 268 kts 322°
2026-05-07 22:24 40.70224 -73.80541 10639 ft 281 kts 322°
2026-05-07 22:24 40.71965 -73.81911 10916 ft 296 kts 322°
2026-05-07 22:24 40.73777 -73.83330 11178 ft 310 kts 323°
2026-05-07 22:24 40.75690 -73.84821 11439 ft 325 kts 322°
2026-05-07 22:25 40.77683 -73.86367 11728 ft 337 kts 323°
2026-05-07 22:25 40.79716 -73.87939 12198 ft 343 kts 323°
2026-05-07 22:25 40.81783 -73.89535 12792 ft 345 kts 322°
2026-05-07 22:25 40.83894 -73.91167 13370 ft 348 kts 322°
2026-05-07 22:26 40.86013 -73.92805 13919 ft 351 kts 322°
2026-05-07 22:26 40.88127 -73.94447 14434 ft 355 kts 321°
2026-05-07 22:26 40.89545 -73.95549 14788 ft 357 kts 321°